Tracking 25723 objects as of 27-Jun-2022
HD Live streaming from Space Station
objects crossing your sky now

DELTA 1 DEB

Track DELTA 1 DEB now!
10-day predictions


NORAD ID: 13573
Int'l Code: 1978-026FL
Perigee: 888.4 km
Apogee: 993.3 km
Inclination: 99.0 °
Period: 103.7 minutes
Semi major axis: 7311 km
RCS: 0.0137 m2 (small)
Launch date: March 5, 1978
Source: United States (US)
Launch site: AIR FORCE WESTERN TEST RANGE (AFWTR)

Note: This is SATELLITE DEBRIS
aabbcc
Your satellite tracking list
Your tracking list is empty




NASA's NSSDC Master Catalog

Two Line Element Set (TLE):
1 13573U 78026FL  22177.71928733  .00000027  00000-0  57142-4 0  9993
2 13573  98.9834  77.0873 0071710 261.8391 160.7437 13.88557757 81856
Source of the keplerian elements: AFSPC